Theta_e
336 336 337 337 337 338 337 338 339 340 340 341 341 341 341 340 340 340 339 338 339 340 340 341 341 341 340 340 340 335 328 322 320 320 320 320 321 321 322 322 324 324 325 326 327 329 330 332 333 335 337 338 339 339 339 340 340 340 340 340 340 340 340 340 339 339 339 339 339 340 339 340 340 341 341 340 340 342 343 343 342 342 343 343 343
335 336 337 338 338 338 340 341 342 342 341 341 341 341 339 338 338 339 340 339 340 339 340 341 341 342 342 342 339 330 326 329 331 328 324 324 324 325 326 326 327 328 329 331 332 334 335 336 337 337 338 339 339 339 339 339 339 339 339 339 338 338 338 338 337 337 337 337 337 337 337 337 337 337 337 337 336 337 338 339 339 339 341 341 341
335 336 337 337 338 339 341 342 341 340 339 340 340 339 339 339 339 340 341 341 341 341 341 341 341 342 342 343 340 333 332 335 338 336 330 329 329 329 330 331 332 334 334 335 336 336 337 337 337 338 338 338 338 339 339 338 338 338 337 336 336 335 335 335 334 334 334 334 335 335 335 335 336 335 335 335 334 335 335 336 336 337 340 341 341
336 336 337 337 338 340 341 341 340 338 339 340 340 340 341 342 342 342 342 342 343 342 342 342 342 342 342 342 342 340 340 338 339 340 335 333 334 333 333 334 334 334 334 333 333 332 332 333 333 334 335 335 335 336 336 336 335 335 334 334 333 332 332 332 332 332 332 333 334 335 336 337 338 338 339 338 338 338 337 337 337 338 340 341 342
336 336 337 337 338 339 341 341 339 338 339 340 341 342 342 343 343 343 343 343 343 343 343 343 342 342 342 342 342 342 343 342 341 340 338 336 338 337 333 331 330 329 328 327 326 327 327 328 328 329 329 330 331 332 332 332 332 332 331 331 331 330 330 330 330 331 333 334 336 337 338 339 340 341 342 342 342 342 342 342 341 341 340 340 340
337 337 337 338 338 338 339 340 340 339 340 342 342 342 342 343 343 343 344 344 343 343 343 343 342 342 342 342 343 342 342 343 342 342 342 341 341 342 337 332 331 329 328 328 325 324 325 325 326 326 327 328 328 329 329 330 330 329 329 329 329 329 329 330 331 332 334 335 337 339 339 340 341 342 343 343 344 344 344 344 344 344 343 341 339
338 338 338 339 338 337 338 340 340 340 341 342 342 342 343 343 344 344 344 344 344 344 343 343 342 342 342 343 343 343 343 344 343 344 346 344 344 346 341 336 335 332 330 331 328 326 324 324 325 325 326 327 328 328 328 329 329 328 328 328 328 329 330 331 332 333 334 335 337 338 339 340 341 341 342 343 344 344 345 345 345 345 345 344 340
340 339 339 340 339 337 338 340 340 341 341 342 342 343 343 344 344 345 345 344 344 343 343 343 343 342 343 343 343 343 343 344 344 345 345 345 346 346 342 336 335 333 329 328 329 328 326 325 324 325 325 326 327 327 328 328 328 328 328 329 330 331 331 332 332 332 333 333 334 335 337 338 340 340 341 342 343 343 344 345 345 345 344 344 341
341 340 339 340 340 338 339 340 341 342 342 343 343 343 344 344 345 345 344 343 343 342 341 343 342 341 341 342 343 343 344 343 343 344 345 344 345 345 344 339 335 334 330 326 327 328 329 327 325 324 325 325 325 325 326 327 328 328 329 330 331 331 332 332 332 332 332 333 334 334 335 336 337 338 339 341 342 343 343 344 345 343 342 343 341
341 340 339 340 340 338 340 341 341 342 343 343 344 344 344 344 344 344 343 343 343 341 340 342 341 340 340 341 342 343 344 344 343 343 345 344 345 346 346 343 340 338 334 329 327 327 329 329 327 325 325 325 326 326 327 328 329 330 330 331 331 332 332 332 333 334 335 336 337 337 337 337 337 338 338 339 340 341 342 344 344 342 338 338 339
341 339 339 341 341 340 341 342 342 343 344 344 344 344 344 344 343 343 344 343 342 341 340 341 340 340 341 342 343 343 343 343 343 342 344 344 345 346 345 345 343 342 340 334 329 328 327 327 327 326 326 327 328 328 329 330 330 331 331 331 332 333 334 335 336 337 338 341 342 342 341 340 339 339 338 338 338 339 340 342 344 342 336 333 334
342 340 340 342 342 342 343 344 344 344 345 345 345 343 343 343 344 345 345 343 341 341 341 341 340 339 341 343 343 342 342 342 342 342 343 344 344 345 345 344 342 341 340 338 333 331 328 328 329 328 328 327 328 329 329 330 331 331 333 335 337 338 339 340 341 341 342 346 348 347 345 342 340 339 339 338 336 336 337 339 342 342 337 332 331
342 341 341 341 342 343 345 346 346 346 347 346 344 343 343 344 346 345 344 342 341 341 342 342 341 339 340 341 341 341 342 343 342 342 343 344 343 343 343 342 340 338 338 337 335 332 332 331 330 330 330 328 328 329 330 331 333 335 338 340 341 342 342 343 344 345 347 349 350 350 348 343 339 338 337 336 334 332 332 335 338 340 338 334 331
342 342 341 341 341 342 345 348 347 347 347 345 344 343 344 345 346 345 343 341 341 341 342 342 341 340 339 339 341 343 343 343 343 342 343 343 343 343 342 341 340 339 339 338 336 334 333 333 332 330 330 330 330 330 332 333 336 338 340 341 342 342 343 343 343 345 348 349 350 350 350 344 337 334 334 332 330 329 328 329 331 334 336 335 333
343 342 342 342 342 343 345 347 347 346 346 345 344 344 345 346 346 345 343 342 341 341 341 342 342 341 339 340 342 343 343 343 343 343 342 343 343 342 342 342 342 341 341 341 340 338 334 333 334 332 331 332 332 333 334 336 338 339 340 341 343 343 344 344 343 345 347 349 349 350 349 345 336 331 330 329 327 327 326 326 327 328 331 333 334
343 343 344 343 342 343 344 346 346 345 345 345 344 344 345 346 345 344 343 343 343 342 342 343 343 342 341 341 343 343 343 343 342 342 342 342 342 343 342 342 342 342 341 342 342 341 338 335 334 333 332 332 334 335 336 338 338 339 342 342 343 344 344 344 344 345 346 347 348 349 349 346 339 331 329 328 327 327 326 326 326 326 326 328 330
344 344 345 344 342 342 343 344 344 343 344 344 344 345 346 346 345 344 344 344 345 344 345 344 343 342 342 344 344 344 344 343 342 341 341 341 342 342 342 342 342 342 342 341 342 342 342 339 337 336 334 334 335 335 336 338 338 339 341 343 342 344 345 345 345 345 347 347 346 347 347 346 344 339 335 333 332 331 330 329 329 329 328 328 327
345 343 344 344 344 343 342 342 343 343 343 343 344 345 346 345 344 344 344 344 345 345 345 344 342 342 343 344 345 344 344 343 343 342 341 341 341 341 342 342 342 342 342 342 342 341 342 342 340 339 338 336 336 336 338 339 341 342 342 343 342 343 345 347 347 347 348 348 346 345 346 345 345 344 342 340 337 335 335 336 337 336 335 333 332
346 342 340 343 343 341 341 341 341 341 341 343 345 346 345 345 344 345 344 344 345 345 345 344 344 343 344 345 345 344 343 343 343 342 342 341 341 341 341 341 341 341 342 342 342 342 341 342 341 340 340 339 339 340 342 343 345 345 345 345 344 342 344 346 347 348 348 349 347 345 345 344 344 345 344 343 340 338 338 340 341 340 341 340 338
344 341 339 341 341 340 340 339 338 340 343 345 347 347 345 345 345 346 345 344 345 345 344 344 344 343 343 344 345 344 343 342 342 342 342 341 340 340 340 341 341 341 342 341 341 342 341 341 341 341 341 341 341 342 343 345 347 347 345 345 344 344 344 345 346 346 348 349 347 346 345 344 344 344 344 344 343 340 339 341 342 342 343 344 343
342 341 339 340 340 340 340 340 340 344 347 349 349 347 345 345 346 346 345 345 346 345 344 344 344 343 342 343 345 345 343 342 342 341 341 341 340 340 340 341 341 342 343 342 341 342 341 341 341 341 341 342 342 342 343 345 347 347 346 345 345 346 346 346 347 347 348 347 346 346 346 345 344 345 345 345 346 344 340 340 342 343 344 345 346
340 341 340 341 341 341 341 341 343 345 347 349 349 346 345 345 346 346 345 345 346 346 345 344 344 343 343 343 344 345 344 343 342 341 341 341 341 341 341 341 342 342 342 342 341 342 341 341 341 341 341 341 341 342 343 346 348 348 347 347 347 347 347 347 347 347 348 346 346 347 347 346 345 345 346 346 346 346 343 340 340 343 344 344 345
340 341 340 342 342 342 342 342 344 345 346 348 347 344 343 345 346 346 346 345 346 347 346 345 344 343 343 344 345 345 345 344 343 342 342 341 341 341 342 342 343 344 343 342 342 342 341 341 341 341 341 341 341 342 344 347 349 349 348 348 348 348 348 347 348 348 348 346 346 348 348 347 346 345 346 345 345 344 342 340 339 341 343 344 344
341 341 340 340 341 342 342 342 343 345 346 347 347 343 341 344 346 347 347 346 347 348 348 346 344 344 344 345 346 345 346 345 344 343 342 342 342 342 343 343 342 343 343 343 343 343 342 342 342 342 341 341 342 343 345 347 348 348 348 348 348 348 348 348 348 348 348 347 347 349 348 347 345 344 344 343 342 340 339 339 339 340 342 343 344
341 340 340 339 339 341 342 341 341 343 345 347 347 344 341 342 345 346 347 346 347 349 348 346 345 344 344 345 346 345 346 345 345 343 343 343 343 342 342 342 342 342 342 342 343 343 344 344 343 342 342 343 344 345 346 348 348 347 347 346 347 347 348 349 348 348 348 348 349 349 347 346 345 343 342 341 339 338 338 337 338 339 342 343 343
340 339 339 338 338 339 340 341 341 341 344 345 346 345 342 342 343 343 344 343 346 349 348 346 345 345 345 345 346 346 345 345 345 345 345 344 344 344 343 343 342 342 342 342 342 342 344 345 346 345 345 345 346 345 346 347 347 346 346 346 346 347 349 348 348 348 349 349 349 348 347 346 346 344 343 342 341 339 338 338 339 341 342 342 343
341 340 339 338 338 339 339 340 342 342 344 344 345 345 344 344 343 342 342 342 343 346 346 345 345 345 346 346 347 347 345 345 345 344 345 344 344 344 344 342 341 341 340 341 341 341 342 343 344 345 345 345 345 344 344 344 344 344 344 346 347 348 349 348 349 349 349 349 349 348 348 347 345 343 342 340 340 340 340 341 342 343 343 342 342
341 341 340 339 339 340 340 341 342 344 344 344 345 347 347 348 347 343 341 341 342 343 343 344 345 346 347 347 348 348 347 347 347 346 345 345 346 346 345 345 343 342 341 340 341 343 343 342 343 345 345 345 344 344 343 342 343 343 345 346 347 348 348 348 349 349 347 346 346 347 347 345 341 338 337 337 340 342 344 345 345 344 343 342 341
341 340 341 340 340 341 341 342 344 345 346 346 346 348 348 350 349 345 343 343 342 342 343 344 345 346 347 347 346 347 347 347 347 347 346 347 348 349 349 348 347 347 347 346 344 346 346 346 347 347 346 346 345 344 343 343 344 346 346 347 347 347 347 347 347 346 345 345 346 346 344 339 336 334 334 338 341 344 344 344 343 342 341 340 339
341 340 341 341 340 341 342 342 343 345 347 347 346 346 347 349 348 345 344 345 343 343 343 343 346 347 347 347 346 346 347 346 346 347 347 348 350 350 350 350 350 350 351 351 349 348 348 349 350 349 348 346 346 344 344 344 345 347 347 346 346 346 345 344 344 343 344 345 346 343 339 336 337 336 336 337 340 342 341 340 339 339 338 337 338
342 342 343 342 341 342 343 343 343 344 345 345 345 344 344 346 346 344 345 346 345 345 344 344 347 348 347 348 348 347 347 347 347 348 347 348 349 350 350 350 351 351 351 351 351 350 349 350 350 350 349 347 346 345 344 344 346 346 345 345 344 343 343 343 343 343 344 344 343 340 338 339 340 338 336 337 338 340 341 341 341 339 339 339 338
342 342 343 343 343 343 345 344 344 345 344 344 344 343 342 343 343 342 343 345 345 346 346 346 346 347 346 347 349 349 350 349 349 349 349 349 349 349 350 351 351 351 351 351 351 350 350 350 351 350 350 348 346 344 343 342 343 343 344 344 343 342 343 343 343 343 343 343 342 341 341 342 340 337 336 336 338 341 344 345 345 342 341 340 339
343 344 344 345 345 345 346 346 346 346 344 343 344 344 342 342 342 341 341 342 343 345 345 345 344 345 345 345 347 349 350 349 350 350 350 350 349 348 349 350 351 351 350 351 351 350 350 351 351 350 349 347 343 341 339 337 337 339 341 343 344 344 344 343 343 342 341 342 343 344 344 342 339 337 336 337 340 345 347 348 348 346 346 344 341
349 349 348 349 349 349 348 347 346 346 345 343 344 344 343 343 343 342 342 342 343 344 345 346 347 346 346 345 345 348 350 349 348 348 347 348 349 348 348 349 351 351 351 351 351 351 352 352 351 350 349 344 338 335 334 332 332 335 340 343 344 344 344 343 342 341 340 343 345 345 343 341 339 337 337 340 344 348 349 349 350 350 350 349 346
350 349 348 347 348 350 351 350 347 345 345 345 345 345 344 344 343 343 343 342 343 346 348 349 349 348 347 346 345 346 347 346 346 346 346 349 350 350 349 350 350 350 351 351 351 352 352 351 350 349 345 339 333 331 331 330 330 333 338 342 344 344 344 343 342 340 340 342 343 342 341 340 339 339 340 343 347 349 350 350 351 352 352 352 351
346 346 346 344 344 347 350 352 349 345 344 346 346 346 345 345 344 343 343 343 343 344 346 348 348 348 350 349 348 348 347 347 348 348 349 351 351 351 351 351 350 350 351 351 351 351 351 350 349 347 342 335 330 330 331 332 331 332 335 337 338 339 340 339 338 337 338 340 341 341 341 342 342 342 343 344 346 348 350 350 351 352 352 353 353
346 346 346 345 345 346 348 352 352 348 346 347 349 350 349 349 348 347 346 346 345 344 345 347 349 351 352 352 351 350 351 351 351 351 351 351 351 352 353 352 351 351 351 350 350 350 349 349 348 345 341 335 331 330 332 334 334 334 334 334 335 336 336 335 337 339 340 341 342 342 342 343 344 344 345 345 346 347 349 350 351 351 352 352 352
348 349 348 347 347 348 349 352 352 351 350 350 352 352 352 353 352 351 351 352 351 350 350 348 348 349 350 351 351 350 350 350 350 350 351 352 352 352 352 352 352 351 350 349 349 348 348 348 348 345 342 338 334 332 335 338 338 338 339 338 338 339 340 339 341 342 343 343 343 343 343 344 345 345 345 346 347 348 348 349 350 351 351 351 352
349 350 350 349 348 349 350 351 351 351 353 353 353 353 353 354 353 352 351 352 353 354 351 348 347 348 349 350 351 351 351 351 350 351 352 351 351 350 350 351 351 351 350 350 349 349 348 349 348 347 344 341 338 337 339 341 341 343 343 342 341 341 342 343 343 344 344 344 344 343 344 345 345 346 346 347 348 349 349 350 350 351 351 351 352
351 350 350 351 350 349 351 352 351 352 352 352 353 353 352 352 353 352 351 351 353 354 352 349 348 348 349 351 351 351 352 353 352 352 351 351 349 348 348 349 350 350 351 351 350 349 349 350 349 348 346 344 343 344 343 343 342 343 344 344 343 343 343 343 344 344 345 344 344 344 345 345 345 346 347 347 348 349 349 350 350 350 351 351 352
352 351 351 351 351 351 351 351 352 352 352 352 352 352 352 351 351 350 350 351 353 354 352 350 349 349 350 352 352 352 352 353 352 351 350 350 348 346 347 347 347 349 350 350 351 350 350 350 349 348 347 346 346 346 344 344 344 344 345 345 345 345 344 343 344 345 345 345 345 345 345 346 346 347 347 347 348 348 348 348 348 349 349 349 350
351 351 351 352 352 351 351 351 352 352 352 352 352 350 350 350 349 349 349 349 351 353 352 350 351 352 352 352 352 352 351 351 351 351 350 349 348 346 346 346 346 347 348 349 350 349 349 350 349 348 348 348 347 346 345 346 346 345 345 346 345 345 345 345 345 346 346 346 346 346 347 348 348 348 348 347 347 347 345 345 346 347 348 348 349
351 351 351 352 352 351 351 352 352 352 352 352 351 350 350 350 350 350 351 350 351 352 351 350 350 350 349 350 351 350 349 349 349 350 350 350 349 349 348 348 347 347 348 349 349 348 349 350 349 349 349 350 348 347 348 348 347 346 345 345 345 345 347 347 347 348 348 348 347 348 349 349 348 348 348 346 345 343 340 341 345 347 347 347 347
351 350 349 349 351 351 351 350 351 351 351 351 351 351 351 352 352 352 352 352 352 352 352 350 348 347 348 350 350 349 348 348 348 349 349 350 350 349 348 348 347 347 348 349 349 350 351 351 350 350 351 351 350 349 349 348 347 346 345 346 347 347 348 349 349 349 349 348 348 349 349 349 348 347 345 341 338 335 334 339 344 345 345 345 346
349 349 348 347 348 349 349 348 348 348 348 348 349 350 351 351 352 352 352 353 352 352 351 349 347 346 347 348 348 347 346 346 346 347 347 348 348 348 347 346 345 346 348 349 350 351 351 351 351 352 353 352 351 350 349 348 348 347 347 348 349 349 349 350 349 349 349 349 349 349 348 347 345 343 339 334 330 329 333 338 341 340 340 341 343
346 347 347 346 345 346 347 347 347 347 347 347 347 347 347 347 347 348 349 351 351 351 349 348 347 346 346 346 346 346 345 345 345 345 345 345 345 344 345 345 345 345 346 347 347 349 350 351 352 353 352 351 351 351 350 350 349 349 349 349 349 349 349 349 349 349 349 348 347 346 345 344 341 337 332 326 324 327 333 336 337 335 334 333 334
346 345 345 345 344 345 345 346 345 346 346 346 345 345 345 345 344 344 345 347 349 349 348 347 347 347 347 348 348 347 347 347 346 345 344 344 343 342 342 343 343 343 343 344 345 347 349 351 351 351 351 351 350 350 350 349 349 349 349 349 349 349 349 349 349 348 346 345 344 342 342 340 336 332 326 321 321 325 329 332 332 330 329 331 331
346 345 345 345 344 344 345 345 345 346 345 346 346 346 345 345 345 344 344 345 346 347 347 346 346 347 348 350 350 350 350 349 347 346 345 345 344 342 342 342 341 341 342 344 345 346 348 349 350 349 349 349 348 348 348 348 348 349 349 349 349 348 348 347 346 344 342 342 341 340 339 337 332 327 321 317 319 323 325 327 327 325 325 328 328
346 346 346 345 345 345 346 346 346 346 346 346 347 347 347 347 346 346 346 345 345 345 345 345 345 345 347 349 351 351 351 350 348 346 346 346 345 344 344 344 344 344 345 346 347 347 348 348 349 349 348 348 348 348 348 348 348 348 348 347 347 345 343 342 340 338 339 339 337 335 334 330 325 321 316 315 320 323 324 325 324 322 322 322 319
347 348 348 347 347 348 348 348 348 348 348 348 348 348 348 348 348 348 348 347 347 346 345 345 345 346 347 348 350 351 350 349 347 347 347 347 347 346 346 346 347 347 347 348 348 348 348 348 348 348 348 347 347 347 347 346 346 346 345 344 341 336 332 330 329 329 332 331 328 326 325 321 318 316 312 313 319 322 323 322 321 319 318 316 312
348 349 349 349 349 349 349 349 349 348 348 348 348 348 348 349 349 349 349 349 348 348 348 347 347 347 348 348 349 350 349 348 348 348 348 347 347 347 347 348 348 348 348 347 347 347 346 345 345 345 345 345 345 345 345 344 344 343 342 338 333 326 322 321 321 321 323 324 320 318 317 315 313 313 313 314 317 318 317 318 317 314 312 310 308
Wind_Speed
14 14 14 15 15 16 16 16 16 15 15 14 15 14 13 11 10 10 10 9 8 8 7 6 6 7 9 11 12 12 12 13 13 13 12 11 10 9 9 10 11 11 11 11 12 12 12 12 11 11 11 11 10 10 10 9 9 8 8 8 7 7 7 7 7 8 8 8 9 9 10 10 11 11 11 11 10 8 8 8 8 8 7 7 7
14 14 14 15 15 15 14 14 14 14 14 14 15 14 12 12 10 9 8 7 6 6 6 5 6 7 8 10 12 13 14 15 16 15 13 11 11 10 10 11 11 11 11 12 12 12 12 12 11 11 11 10 9 9 8 8 8 7 7 7 6 6 6 6 6 7 7 8 9 9 10 10 11 11 11 12 11 11 10 9 9 8 7 7 7
14 14 14 14 14 13 13 13 14 14 15 15 16 15 13 11 9 8 6 5 5 4 4 4 5 7 8 9 12 13 14 14 16 15 13 12 11 11 11 11 12 12 12 12 12 12 12 11 11 10 10 9 8 8 8 7 7 6 6 6 6 6 6 6 7 7 8 9 9 10 11 11 11 11 12 12 12 12 12 11 11 10 7 7 7
13 13 14 13 12 12 12 13 14 15 16 16 16 15 13 10 7 5 4 4 3 3 3 3 4 6 8 8 8 10 11 12 13 13 12 12 13 13 12 12 12 13 13 13 13 12 12 11 10 10 9 8 8 7 7 7 7 6 6 6 6 6 7 7 8 8 9 9 10 10 11 11 11 12 12 12 12 12 12 12 13 12 10 8 9
12 13 13 12 12 11 11 13 13 14 16 15 14 12 10 7 5 4 3 2 2 2 2 3 3 4 6 7 6 6 8 9 10 11 12 13 14 14 14 14 14 14 15 14 13 13 12 11 11 10 9 8 8 8 8 7 7 6 6 6 6 7 7 8 8 9 9 9 9 10 10 10 11 11 11 11 11 12 12 13 13 13 12 11 10
11 11 11 11 10 10 11 12 13 14 14 14 12 10 8 5 4 3 2 1 1 1 3 4 4 2 3 5 6 6 6 8 9 11 11 11 12 13 14 15 15 15 15 15 14 13 13 12 11 10 9 9 8 8 8 7 7 6 6 7 7 7 8 8 8 9 9 9 9 10 10 10 10 10 10 10 11 11 12 12 12 13 13 12 11
9 9 9 9 8 9 11 12 13 13 13 12 11 9 7 5 4 3 1 0 0 1 2 4 6 5 4 4 6 6 6 8 10 10 10 9 9 10 12 13 14 14 14 14 15 14 13 12 12 11 10 9 8 8 7 7 6 6 7 7 8 8 8 9 9 10 10 11 11 11 11 10 10 10 10 10 10 11 11 12 12 12 12 13 12
8 8 8 8 8 9 11 12 13 13 12 11 10 9 7 5 4 2 1 0 1 1 2 3 5 6 5 4 5 6 6 7 8 8 8 7 7 8 10 11 12 12 12 12 13 14 14 13 12 11 11 10 8 7 7 6 6 7 7 8 8 8 9 10 10 11 12 13 13 13 13 12 12 11 11 11 11 11 12 12 12 12 12 12 12
8 8 8 8 9 9 10 12 13 12 12 11 10 9 7 6 4 2 2 1 0 1 3 4 4 4 5 4 3 4 4 4 4 6 6 6 6 7 8 8 9 10 11 11 11 12 12 12 12 11 10 9 8 7 6 6 6 7 7 8 9 9 10 10 11 12 14 15 16 16 15 15 14 13 13 13 12 12 13 13 13 13 12 12 12
7 7 8 8 8 9 10 12 13 12 12 11 10 9 8 6 4 2 1 1 0 1 1 3 4 4 4 3 3 2 4 4 3 3 5 5 6 6 7 7 7 8 8 9 9 10 10 11 11 10 10 9 8 7 7 6 6 7 8 9 9 10 10 11 12 14 15 16 17 18 17 16 16 16 15 14 14 13 13 13 13 13 13 13 12
7 8 8 8 9 10 10 11 12 12 12 11 10 10 8 6 4 3 1 0 2 2 2 3 3 3 2 2 3 3 4 4 2 2 3 4 4 5 6 6 6 6 6 6 7 7 8 9 9 9 9 8 7 6 6 6 7 7 8 9 10 10 11 12 13 14 15 17 18 19 19 18 17 17 16 16 15 15 14 14 14 14 13 13 13
7 8 9 9 10 10 10 11 12 12 11 11 11 10 9 6 4 3 1 1 3 4 4 4 2 2 2 2 3 4 4 3 1 1 2 3 3 4 4 5 5 5 5 5 5 5 5 7 7 7 7 6 6 5 6 7 7 8 9 10 10 11 12 13 13 14 15 17 19 20 20 19 18 17 17 17 16 16 15 14 14 14 13 13 13
6 9 9 9 10 10 10 11 12 12 11 11 12 11 9 7 4 2 2 2 2 5 6 4 3 2 3 3 3 4 4 2 1 1 1 2 3 4 5 5 5 5 5 6 5 4 4 5 5 6 6 5 5 5 6 7 8 8 9 9 10 10 11 12 13 14 15 17 18 20 20 20 19 17 17 17 17 17 16 15 15 14 13 13 12
7 9 9 9 11 9 9 11 11 11 11 12 12 12 10 6 3 3 4 4 4 6 6 5 2 1 2 2 3 4 4 3 3 1 2 2 2 4 6 6 6 7 7 7 7 6 6 5 4 5 5 5 5 6 7 7 7 8 8 9 10 11 12 13 14 15 16 17 18 19 20 20 19 17 17 16 16 17 17 16 16 15 14 13 12
8 8 8 10 10 9 9 10 10 11 11 12 13 13 9 5 4 4 5 4 4 6 6 5 1 0 2 1 3 4 4 4 4 4 3 3 3 4 5 5 5 6 5 6 8 8 8 6 4 4 4 5 5 6 7 7 7 8 9 10 12 13 14 14 15 15 16 17 18 19 19 20 19 17 16 16 16 17 17 17 17 16 15 14 13
8 8 8 9 9 9 10 11 11 11 12 13 13 12 8 5 4 5 5 4 4 3 3 3 1 2 3 2 2 5 6 4 4 5 5 5 4 4 3 3 3 4 4 4 5 7 8 8 6 4 4 4 4 5 6 8 9 9 9 11 13 13 14 15 15 16 17 18 18 17 18 18 18 17 17 17 17 18 18 19 19 18 17 16 15
10 9 9 9 9 9 11 12 11 11 11 12 12 10 7 6 5 5 5 4 3 2 1 1 2 2 2 2 3 6 7 6 4 4 6 6 5 4 3 2 0 1 2 2 3 4 6 7 8 7 6 4 4 4 6 9 11 11 11 12 13 13 14 15 16 16 17 18 18 16 15 16 16 17 17 17 18 19 19 19 19 19 18 17 16
9 10 9 9 9 10 11 12 11 11 11 11 10 9 8 7 6 5 5 4 4 3 2 2 2 2 2 3 4 6 8 7 6 5 6 6 6 5 4 2 2 3 3 3 4 4 4 5 6 8 7 5 5 6 7 9 12 13 13 13 13 13 13 15 16 16 17 19 19 15 13 14 14 15 16 16 18 18 19 20 20 20 18 17 17
7 8 8 9 9 10 11 11 11 10 9 8 8 8 9 8 6 5 4 4 4 4 4 3 2 2 2 1 2 5 6 6 6 7 7 7 7 7 6 5 4 5 6 6 5 5 5 5 5 6 7 6 7 8 9 11 14 15 15 14 14 13 13 14 15 16 17 19 19 16 13 13 13 14 15 16 17 17 17 19 21 21 19 18 17
7 6 7 8 8 9 10 10 9 8 6 6 6 7 8 8 6 6 4 4 4 4 4 4 4 3 2 1 1 1 4 6 6 7 8 9 8 7 7 6 6 6 6 6 6 5 5 5 4 3 5 6 7 9 10 12 15 16 16 15 13 13 13 14 15 16 17 19 19 16 13 13 14 14 15 15 16 17 16 17 20 21 20 20 19
8 7 7 6 7 7 7 7 7 7 7 6 6 6 7 7 6 5 5 4 5 5 4 4 4 3 2 1 1 2 3 5 6 7 8 9 9 9 8 6 4 2 4 5 4 4 5 5 5 4 3 6 7 9 11 12 14 14 14 14 13 13 14 15 16 16 17 18 17 15 13 13 14 15 16 16 16 16 16 16 18 20 20 21 21
9 9 8 7 7 7 7 7 7 7 8 6 6 6 6 7 7 6 5 5 4 5 6 5 6 5 3 3 1 1 3 4 4 4 4 5 6 6 6 4 2 0 2 4 4 3 4 6 6 5 4 6 7 9 11 11 11 12 12 12 13 13 14 15 16 17 18 19 16 14 13 13 14 16 17 17 16 15 15 15 16 17 19 20 21
10 10 9 9 9 8 8 8 9 8 7 6 6 6 5 6 8 7 6 5 5 5 7 6 7 6 5 4 3 2 2 2 3 3 3 4 5 5 4 3 1 1 3 3 4 4 1 3 4 4 5 5 7 10 10 8 8 9 10 10 11 12 13 15 16 18 20 19 14 12 13 14 16 18 18 18 16 15 14 14 15 16 17 18 20
11 11 11 10 10 9 9 9 10 9 6 6 6 5 4 5 7 8 7 6 5 6 7 7 7 7 6 5 4 2 2 1 0 1 2 3 4 4 2 1 1 3 4 5 5 5 3 0 1 2 5 7 8 10 8 6 7 8 9 10 11 13 14 15 17 19 19 16 13 12 13 15 17 18 19 18 17 15 15 14 15 15 16 17 18
12 11 11 11 10 10 9 8 8 8 6 5 5 5 5 6 7 8 8 8 7 7 7 7 7 7 6 6 5 3 3 2 2 1 1 0 1 3 4 4 4 5 6 6 6 6 4 2 0 1 5 7 9 9 7 7 8 10 11 13 13 14 14 15 18 18 16 13 12 12 14 16 17 19 19 18 18 17 16 16 17 16 17 18 17
10 10 10 10 10 10 9 8 7 8 7 6 5 6 7 7 7 8 8 9 9 8 8 8 8 7 7 6 5 4 4 4 4 4 3 3 3 4 5 6 7 8 8 7 7 5 4 3 2 2 4 6 8 9 9 10 12 13 14 15 15 15 15 17 18 17 13 12 11 13 15 16 17 18 19 18 18 18 18 19 18 17 17 19 18
10 10 11 10 10 10 10 9 8 9 9 8 7 7 8 8 8 8 8 9 10 10 9 9 9 8 7 6 5 5 5 6 6 5 5 5 5 5 6 6 7 8 8 7 5 4 3 3 3 4 5 8 9 11 12 12 13 14 15 15 15 15 16 17 17 14 12 12 12 13 15 15 17 19 20 20 20 20 19 18 16 16 17 18 19
12 12 12 12 12 12 11 10 10 10 10 9 8 8 8 8 8 8 9 9 10 10 10 10 10 9 8 6 5 5 5 5 5 5 5 5 5 5 5 6 7 8 8 6 4 4 4 5 4 4 6 8 10 11 11 12 12 13 14 14 15 15 15 14 13 12 13 13 12 12 14 15 16 18 19 20 19 18 17 15 14 16 18 20 21
14 13 13 13 14 13 12 12 11 10 9 9 9 9 9 9 9 9 9 10 10 10 10 11 10 10 9 8 7 7 7 6 5 5 5 5 4 3 3 4 5 7 8 8 7 6 6 7 8 7 8 10 11 10 10 11 11 12 12 13 13 13 11 10 9 10 11 11 9 10 13 14 15 17 18 18 17 17 16 16 18 20 22 24 24
15 15 15 15 15 15 14 13 12 10 9 10 10 10 10 10 10 10 10 10 10 10 10 10 10 10 9 9 8 9 8 8 7 6 6 5 3 3 3 3 5 6 8 9 10 9 8 9 10 11 12 12 12 11 10 10 10 9 10 10 9 8 7 6 7 8 8 8 8 10 12 14 16 18 18 18 18 18 19 20 21 23 24 24 24
16 15 16 16 16 16 15 14 12 10 10 11 11 11 11 11 11 11 11 10 9 9 9 10 10 10 10 9 9 9 9 8 8 7 6 5 5 5 5 4 6 7 8 10 12 11 11 11 12 13 14 13 11 11 10 9 8 8 8 8 7 6 6 6 6 8 9 9 9 11 14 16 18 19 19 19 22 22 21 21 21 21 22 21 21
16 16 15 16 16 16 16 14 12 11 11 12 12 12 11 12 12 12 12 11 10 10 9 9 10 10 10 10 10 10 10 10 9 9 8 8 8 8 7 7 7 9 9 10 12 12 11 12 13 12 12 12 10 10 10 9 8 8 8 9 8 7 7 8 9 10 11 11 11 13 15 17 20 20 19 21 24 24 21 19 18 18 18 18 18
16 15 15 15 15 15 14 13 11 11 12 13 13 12 11 11 12 12 12 12 11 11 10 10 10 10 10 11 11 11 11 10 10 10 10 10 10 9 9 9 8 9 9 10 11 13 13 12 12 12 11 10 10 10 11 11 9 8 7 8 9 9 9 10 11 12 12 12 12 13 15 19 21 21 21 23 24 21 17 16 16 16 16 16 14
18 18 18 18 17 15 14 13 11 11 12 12 13 12 11 11 12 12 13 13 12 11 11 10 9 9 10 10 11 12 12 11 10 9 9 8 8 9 9 10 10 9 9 10 10 12 13 12 12 12 11 11 11 11 12 12 11 9 8 9 9 9 9 10 11 12 13 12 12 14 18 20 21 21 21 22 20 16 14 15 15 14 13 13 11
17 15 16 17 16 15 15 13 12 12 12 12 12 12 12 11 12 13 13 13 12 11 11 10 9 9 9 10 10 11 12 11 10 9 8 8 7 8 8 9 10 9 10 11 10 11 12 13 13 13 13 13 13 13 13 13 11 10 10 10 10 10 10 11 13 14 15 14 15 17 19 20 20 20 21 20 17 14 13 14 14 13 12 12 11
13 12 13 14 14 15 15 13 13 13 12 12 11 12 12 11 12 13 13 13 12 12 11 11 10 9 9 9 10 10 11 11 10 9 9 9 8 7 7 8 9 9 10 10 10 10 11 13 14 14 15 15 14 14 14 13 12 11 11 12 13 13 14 14 15 16 16 15 16 17 18 19 20 20 20 18 15 13 12 13 13 12 12 12 12
13 13 13 13 13 14 14 13 12 12 12 12 11 11 11 10 11 12 12 12 12 11 11 11 11 11 10 10 10 10 11 10 9 8 8 9 8 8 7 7 7 7 7 8 8 9 11 13 14 15 16 16 15 15 14 14 14 14 13 14 15 16 16 15 14 14 14 14 15 16 17 19 20 21 20 18 15 13 12 12 13 13 12 12 12
14 14 14 14 14 13 13 13 13 13 13 12 11 11 10 9 10 11 11 11 9 9 10 12 13 13 11 11 11 11 11 10 9 7 7 8 9 9 8 7 7 7 7 7 8 9 11 12 14 16 17 17 16 15 14 15 16 16 16 16 16 16 17 16 13 13 14 16 17 18 19 21 22 23 22 19 15 12 11 11 12 13 13 13 13
14 14 15 15 13 13 13 13 13 14 14 14 12 12 11 10 10 11 11 11 11 11 12 12 13 12 11 11 11 10 10 10 9 8 7 7 8 9 9 9 9 9 9 10 10 11 12 13 15 17 17 17 16 16 15 16 16 16 17 18 18 17 17 17 16 16 18 18 19 19 21 23 24 24 22 19 15 13 12 11 12 12 13 14 14
15 15 15 14 13 13 14 14 14 13 14 14 13 13 13 13 12 12 12 13 13 13 12 11 11 11 10 10 10 9 9 10 10 10 9 8 9 9 10 11 12 12 12 13 13 13 14 15 16 16 16 16 16 17 18 17 16 16 17 19 20 20 19 19 18 19 21 21 20 20 22 24 25 24 22 19 17 15 14 13 13 13 13 14 14
15 15 14 14 13 13 15 16 15 14 14 15 15 15 15 15 14 13 14 14 14 14 13 12 12 11 10 10 11 10 11 11 12 11 10 10 10 10 10 12 13 14 14 14 15 15 16 16 16 15 15 16 17 18 18 16 16 17 18 20 21 21 21 21 20 20 21 23 22 22 23 25 26 24 22 20 19 17 16 15 15 15 15 14 15
14 14 14 15 14 14 15 16 16 16 15 15 16 16 16 15 15 13 14 15 15 15 15 14 13 12 11 11 11 11 12 12 13 12 11 11 11 11 11 12 13 15 16 16 16 17 17 17 16 16 17 18 18 18 18 17 17 18 19 20 21 22 23 23 21 19 20 23 25 24 24 25 25 23 20 19 18 16 16 16 15 14 14 13 14
14 14 15 16 15 14 15 16 16 16 16 15 15 15 14 14 13 13 13 14 14 15 15 14 13 12 11 10 10 11 11 12 13 12 11 11 11 11 12 13 13 14 16 17 18 18 18 18 18 18 19 20 19 18 18 18 18 19 20 21 22 23 23 23 23 21 20 23 26 26 25 24 23 21 18 17 16 14 14 14 14 13 12 12 12
16 15 15 15 16 16 16 16 15 15 15 15 14 13 13 13 13 13 13 14 14 15 15 14 13 13 12 11 11 10 11 11 11 11 11 11 12 12 13 13 13 14 15 16 18 19 19 19 20 20 20 20 20 19 19 20 20 21 21 21 22 23 22 22 22 22 22 24 26 26 23 21 20 18 16 15 13 12 12 11 11 11 11 11 11
17 17 16 15 15 16 17 16 15 14 14 14 13 13 13 12 13 14 14 15 15 15 15 15 14 14 13 13 13 13 13 13 12 12 13 13 14 15 15 15 15 15 15 16 17 18 19 20 20 20 20 20 20 20 20 21 22 23 22 22 22 23 23 23 23 23 23 25 25 24 21 18 17 16 15 13 12 10 10 9 9 10 10 10 11
18 18 18 16 16 17 17 16 15 15 15 15 14 14 13 13 14 15 16 16 17 17 17 17 17 17 16 16 16 16 16 15 15 15 16 17 18 19 18 18 17 16 16 17 17 18 19 19 19 18 19 19 19 20 21 22 23 23 23 23 24 24 24 24 22 21 21 22 22 21 18 16 17 16 14 12 11 10 9 10 9 10 10 11 11
20 19 19 18 17 17 18 17 17 17 17 16 16 15 15 15 15 16 17 18 18 19 19 19 20 20 19 19 19 19 19 19 19 18 18 18 19 19 19 19 19 18 18 18 18 18 18 18 18 18 19 19 20 21 23 24 24 24 24 24 24 25 25 23 21 18 17 18 18 17 15 16 18 17 15 13 12 10 10 12 12 11 12 12 12
22 20 19 18 18 18 18 18 19 18 18 17 17 17 17 17 17 17 18 19 20 20 21 21 21 22 22 22 22 22 22 22 21 20 19 19 19 18 18 18 18 19 19 19 19 19 19 19 19 19 20 21 23 24 25 25 25 24 23 23 23 24 23 21 18 13 11 14 16 14 14 15 18 19 19 16 14 11 10 11 13 14 14 14 14
23 22 20 19 18 19 19 19 19 20 19 19 19 19 20 20 20 20 20 21 22 22 22 22 22 23 24 24 25 24 24 23 21 21 21 20 19 18 17 17 17 18 17 18 19 19 19 19 20 20 21 22 23 23 23 23 23 22 22 21 20 20 18 17 15 11 9 13 16 15 16 17 19 20 21 18 14 11 10 12 15 17 17 17 17
23 23 22 20 20 19 19 20 20 20 21 21 21 21 21 21 22 22 22 22 22 23 24 24 23 23 24 24 25 24 23 22 22 21 21 20 19 18 17 17 17 17 17 17 18 18 18 18 18 19 19 19 19 19 19 20 20 20 19 18 16 16 15 15 15 12 11 14 16 17 18 20 20 21 21 19 14 11 12 15 17 18 19 19 18
23 21 19 18 18 19 19 19 20 20 20 21 21 22 22 22 22 21 22 22 22 23 24 24 23 24 24 25 25 25 23 22 22 21 20 18 17 17 17 17 17 17 17 16 16 16 16 15 15 15 15 14 14 15 15 16 16 17 17 16 15 15 15 15 15 15 15 16 17 18 19 20 20 21 21 20 17 15 16 18 19 19 19 19 18
Wind_Direction
137 135 136 138 139 138 136 137 136 137 139 138 138 138 135 134 133 134 133 133 134 136 133 115 90 78 71 62 56 54 55 57 59 61 64 69 75 77 82 87 90 92 94 93 92 90 88 86 83 82 80 77 75 72 70 67 63 61 57 53 48 44 39 34 30 26 22 18 15 14 12 11 8 4 359 358 357 349 343 339 339 344 342 338 336
139 137 139 141 141 140 139 139 138 138 139 141 143 142 140 137 135 135 131 126 125 125 118 103 87 78 71 63 58 60 68 72 68 66 69 74 79 81 84 89 92 92 92 92 90 90 90 90 88 86 85 83 81 79 76 73 69 66 62 58 53 48 42 36 33 29 25 22 20 18 15 14 12 9 5 2 1 358 354 348 349 354 346 337 336
142 141 141 142 141 141 141 140 138 137 137 139 142 143 141 138 137 134 128 122 113 108 97 77 65 62 63 62 64 68 71 73 69 65 70 75 80 84 86 89 92 91 89 87 87 88 89 89 90 89 90 89 90 88 86 84 80 78 72 66 60 51 45 40 36 33 31 29 26 24 21 19 17 16 14 10 7 4 2 359 -0 3 360 347 340
143 143 142 142 143 145 145 144 141 140 139 139 141 142 142 139 138 134 126 118 98 85 71 50 41 44 53 57 65 71 67 67 66 66 72 80 84 86 88 88 88 89 87 86 85 87 89 90 92 94 97 99 99 98 96 95 91 86 79 72 63 53 45 39 36 34 33 33 31 30 27 24 22 21 20 17 13 10 7 6 5 5 2 352 342
145 145 144 145 148 149 150 150 148 146 144 144 144 143 143 140 139 138 125 113 85 68 62 54 38 30 45 53 60 66 61 61 65 72 78 86 88 85 85 87 87 87 87 88 87 87 88 90 94 97 100 103 104 104 101 99 95 89 82 73 65 56 48 41 37 35 34 34 35 34 31 28 24 21 20 17 14 11 9 8 8 7 6 -0 351
149 149 149 151 156 155 155 157 157 154 151 149 148 147 146 147 149 148 130 119 91 71 83 91 91 70 57 59 64 67 64 66 75 83 83 85 87 83 85 89 88 88 88 88 87 86 85 86 89 93 96 99 101 102 101 98 92 86 78 70 63 57 51 44 38 35 32 31 31 31 29 25 21 17 14 12 8 5 3 3 3 6 8 7 2
155 157 158 161 164 158 155 160 162 160 159 154 153 155 156 164 171 167 163 171 328 21 73 94 98 94 81 64 67 75 79 85 87 84 80 82 83 80 87 93 91 90 89 89 89 88 85 83 84 85 88 92 94 96 97 94 88 81 73 67 61 55 49 43 36 32 27 24 22 22 20 17 14 11 8 5 2 359 356 355 355 358 2 5 4
166 169 170 170 168 162 158 163 165 165 165 162 161 166 171 177 182 182 180 180 350 33 70 91 101 88 71 64 75 86 90 91 88 81 78 79 79 79 86 94 94 91 89 89 91 92 89 86 83 81 83 85 87 87 87 86 82 78 70 64 59 51 45 38 32 28 24 21 18 16 15 13 10 7 5 1 360 357 354 352 351 352 355 358 360
176 180 177 172 171 168 163 165 167 165 165 166 169 175 178 179 183 180 170 121 31 127 90 90 107 88 67 61 66 85 81 68 69 73 78 82 81 78 77 86 92 89 90 89 91 93 93 92 89 85 84 84 84 82 80 78 76 74 70 64 56 48 42 36 31 27 25 22 19 16 14 12 10 7 4 0 358 356 353 351 350 351 352 352 354
178 183 179 176 174 170 163 161 165 165 164 170 176 181 182 183 185 169 153 98 103 183 103 84 93 84 62 38 24 42 36 18 27 64 77 87 86 79 74 79 84 84 88 88 90 93 93 94 93 90 89 87 86 81 78 74 71 69 66 61 54 47 40 35 31 28 27 26 22 18 14 10 9 6 3 360 356 354 351 349 349 349 350 350 351
171 178 176 173 167 162 159 158 164 169 170 177 183 185 186 186 175 146 109 101 162 175 129 86 84 86 64 355 349 359 3 1 2 71 77 86 87 83 82 83 82 82 84 85 87 92 95 97 95 93 93 95 94 87 79 72 66 61 58 58 53 46 39 34 31 28 28 27 23 19 15 9 6 4 1 358 355 353 350 347 346 345 346 348 349
164 171 170 168 162 156 157 159 166 173 178 186 189 187 185 178 155 121 94 154 173 167 140 114 115 137 177 240 295 319 333 356 357 109 95 85 82 85 91 90 86 86 88 92 88 83 90 93 92 91 91 95 98 91 77 67 62 59 57 56 50 44 40 36 30 27 25 24 22 19 16 10 6 2 359 356 354 352 350 347 345 343 343 344 346
161 168 165 165 161 156 159 162 166 172 182 191 188 185 183 171 140 95 111 123 146 167 163 147 143 175 205 224 247 281 293 312 347 175 141 98 89 90 94 94 87 84 85 89 89 85 83 77 74 79 81 86 89 83 75 71 68 64 56 49 44 38 34 30 26 24 22 19 18 17 15 12 8 4 359 356 355 354 352 350 346 344 342 339 340
156 164 165 164 163 160 162 164 166 172 181 184 183 183 180 165 124 94 125 126 120 147 173 180 180 246 251 252 231 244 267 271 273 244 188 166 135 107 98 93 85 83 79 75 73 75 81 80 71 70 75 78 76 75 76 73 64 52 42 35 32 28 23 20 18 18 17 14 13 14 14 13 10 7 3 0 359 357 355 353 349 346 343 338 333
148 160 167 165 164 162 163 167 170 174 176 176 180 183 176 155 131 127 136 137 130 133 156 175 158 62 169 207 241 249 269 272 269 265 239 209 179 137 108 94 86 86 79 69 62 61 67 75 79 75 73 74 77 82 75 56 37 29 30 27 23 21 18 15 14 13 10 7 7 9 11 13 12 10 7 6 5 1 359 355 352 348 345 340 333
154 160 166 165 163 165 169 173 172 170 170 173 178 181 172 155 148 148 144 143 145 140 143 163 148 120 150 180 258 268 278 284 272 255 242 224 198 175 143 114 95 84 73 60 51 50 54 57 66 70 66 71 76 74 53 25 13 13 17 15 13 15 15 13 11 9 6 3 3 5 9 12 14 13 10 9 6 3 0 357 354 352 348 344 337
165 160 159 159 160 165 170 173 170 166 166 171 178 181 178 168 157 151 150 144 143 151 150 174 185 178 188 234 265 272 276 284 279 247 237 233 218 200 175 157 212 21 33 18 9 23 35 42 52 56 55 62 49 27 16 9 7 5 1 358 3 10 12 11 9 7 5 3 2 3 6 11 13 13 10 9 6 4 3 2 359 356 353 349 345
167 155 152 153 157 163 166 167 166 163 162 168 178 185 185 179 167 159 158 157 151 141 129 137 180 210 243 247 260 272 269 268 263 245 243 244 233 225 218 228 265 286 314 327 328 333 351 12 32 43 47 54 41 22 18 15 10 6 358 353 355 -0 4 5 3 2 2 2 3 3 5 9 12 11 9 7 6 6 8 9 6 2 357 354 351
170 157 153 152 157 164 165 164 162 158 157 167 180 186 188 186 177 172 173 178 171 148 131 134 157 172 176 190 253 266 255 248 249 247 245 238 232 236 239 249 274 290 299 302 300 302 313 328 353 24 38 42 35 27 25 20 12 5 359 354 354 356 356 355 353 353 353 355 0 2 1 3 5 6 6 4 3 4 8 10 8 6 4 2 358
181 175 163 155 160 165 166 164 158 154 163 176 181 182 185 185 179 178 185 191 183 165 148 152 163 162 155 127 36 277 226 228 242 252 247 232 228 238 247 264 287 301 312 310 289 274 282 295 307 337 18 22 15 15 16 15 10 5 2 359 359 358 352 346 343 342 345 349 355 359 356 354 355 358 360 358 356 357 0 4 5 6 9 10 7
186 189 181 166 167 170 172 171 165 170 181 181 177 180 186 188 187 187 197 200 192 189 183 181 190 194 180 159 57 75 158 199 224 247 251 234 225 235 248 264 279 315 6 359 332 279 268 266 270 282 337 1 358 0 5 9 9 7 6 3 359 353 346 341 338 338 342 347 351 354 351 346 347 352 354 351 348 348 350 353 359 3 7 10 10
192 194 189 183 182 183 185 188 188 190 189 185 180 184 193 198 199 201 211 217 210 213 215 207 209 220 212 193 197 133 134 151 178 211 232 217 210 219 224 222 217 27 19 18 16 338 277 248 249 259 294 338 344 347 352 359 4 4 1 355 348 344 341 339 337 337 341 345 347 348 346 342 343 347 347 345 342 340 341 343 349 358 3 6 6
199 197 192 192 192 191 195 198 199 195 190 192 190 190 196 201 203 207 217 228 227 226 227 223 223 229 228 215 217 221 189 131 126 140 157 165 168 170 174 178 173 5 356 1 12 13 348 227 236 253 273 315 333 332 335 346 354 354 350 342 334 333 334 334 333 335 338 341 342 341 341 341 342 344 341 340 339 337 337 338 342 349 356 360 1
204 202 197 196 195 197 202 200 199 199 199 203 201 197 197 196 202 209 217 229 230 226 228 231 231 233 234 228 224 229 244 274 81 106 124 160 174 181 197 237 292 339 345 345 351 4 12 48 170 231 268 294 310 311 310 317 329 331 328 324 320 321 325 326 330 335 336 338 339 337 338 341 344 345 342 339 338 335 335 337 338 342 346 351 354
209 208 203 200 198 203 209 204 203 210 218 222 212 207 206 200 203 211 219 227 227 224 228 233 233 234 239 239 235 236 250 271 287 309 339 309 260 261 273 284 296 312 320 325 333 344 349 348 36 223 266 284 296 302 295 291 304 311 312 315 316 317 319 322 330 336 335 335 340 340 337 341 346 348 347 344 340 337 335 334 334 337 339 342 346
218 217 213 209 208 212 218 214 213 220 227 228 217 214 218 213 210 216 223 227 224 223 228 232 234 234 237 240 245 251 254 264 281 295 298 299 302 303 298 294 298 306 310 312 317 325 336 332 310 276 273 283 294 301 297 294 300 304 307 310 313 316 317 323 333 337 333 335 342 341 338 341 347 349 347 344 342 339 337 334 334 336 338 339 340
225 225 221 217 216 220 225 224 225 229 231 230 222 222 225 222 218 219 225 228 225 225 229 233 237 240 236 234 239 249 255 262 273 284 288 286 291 301 305 305 307 306 305 305 309 319 326 314 300 284 282 289 297 302 302 302 304 305 306 307 309 313 317 326 335 336 332 331 333 335 338 343 347 346 342 338 338 338 338 336 335 334 334 334 334
225 225 222 220 219 222 226 227 232 235 235 231 228 231 231 230 226 220 224 230 227 226 229 233 241 244 239 234 231 235 243 255 267 272 273 276 285 299 309 316 321 317 312 309 316 340 347 337 329 313 302 306 308 308 308 309 310 311 310 309 310 314 320 329 338 339 336 333 331 335 339 343 347 349 345 341 340 340 338 334 329 325 324 325 325
223 222 223 221 218 221 225 226 228 233 235 232 232 236 237 237 235 228 227 231 229 227 227 231 241 245 242 242 240 236 239 249 261 265 263 266 277 301 318 327 333 333 331 328 332 350 359 352 343 333 326 325 323 320 319 319 320 319 316 316 317 321 329 340 345 347 347 345 346 344 339 344 353 356 353 348 343 338 330 323 319 317 317 318 318
222 221 223 221 218 218 221 224 227 231 236 235 233 236 237 234 234 234 232 233 232 232 232 232 240 243 239 241 243 241 241 246 255 262 263 264 272 287 304 322 328 328 327 324 326 335 347 349 345 339 333 332 333 334 333 331 331 327 325 328 330 332 340 349 350 352 353 353 351 341 338 347 355 354 350 344 339 332 324 318 315 314 315 316 316
223 221 221 222 219 218 220 222 223 229 237 238 236 238 237 232 234 237 237 237 235 234 237 238 239 240 238 241 248 249 250 252 258 265 265 263 273 281 284 292 304 307 309 312 313 322 337 340 340 340 335 334 337 337 335 336 335 331 331 335 335 333 336 337 336 337 339 340 340 336 339 346 347 344 340 337 335 331 325 319 316 315 316 317 318
227 224 222 223 222 220 221 223 223 227 232 235 237 238 237 234 236 240 240 240 238 234 233 234 237 241 243 247 252 254 257 260 263 267 265 265 273 277 273 277 293 300 302 303 305 315 332 336 336 341 337 333 337 336 333 335 332 326 330 337 334 326 325 327 328 331 334 334 333 333 335 338 338 336 334 332 333 331 328 325 323 321 321 323 325
230 228 226 227 227 227 228 226 227 231 231 233 237 238 236 235 237 239 240 240 241 238 233 233 238 245 250 256 259 261 264 268 271 273 274 276 279 276 268 269 285 299 301 301 304 313 326 333 335 339 336 331 337 340 336 334 331 323 323 334 335 327 321 322 326 331 334 331 328 328 328 330 332 332 330 331 333 333 331 330 330 329 330 334 335
225 224 223 222 222 227 235 236 231 230 231 232 234 236 236 236 236 236 238 240 241 244 242 241 243 248 254 259 261 263 268 274 277 274 269 266 269 272 268 267 275 292 301 301 302 312 322 330 334 335 334 333 338 342 340 337 335 326 316 319 326 327 324 322 325 329 330 327 324 323 323 326 329 328 329 335 338 336 333 333 333 334 336 341 344
227 227 230 230 225 223 229 238 234 228 229 228 229 234 235 235 236 235 236 238 241 246 246 242 242 247 255 260 262 263 264 268 270 261 247 243 255 270 272 270 273 286 299 298 297 307 317 324 329 331 332 334 335 338 338 335 332 324 314 309 308 311 313 314 317 320 320 320 319 319 322 326 329 329 332 340 344 336 330 333 334 333 334 336 338
231 231 234 236 235 226 219 225 231 228 225 224 226 230 230 230 234 234 235 237 240 244 246 248 249 253 259 263 262 259 257 260 261 253 244 244 255 270 277 275 276 288 300 297 295 303 311 318 324 326 328 329 330 334 333 328 323 317 310 303 300 300 302 305 311 315 317 318 318 320 324 329 333 334 336 342 344 334 326 328 330 330 331 331 330
224 223 224 226 233 231 217 213 224 226 220 219 222 225 225 226 230 232 232 236 239 243 248 252 253 252 256 262 261 255 252 254 255 250 250 253 257 262 269 271 274 285 295 296 297 305 309 314 318 320 322 322 323 328 327 320 316 313 308 304 303 304 306 308 313 320 322 322 322 324 328 334 339 341 341 341 340 333 323 318 318 321 323 325 326
219 219 222 223 225 225 218 212 215 217 217 218 219 223 227 231 236 234 229 230 235 240 242 245 246 247 254 263 266 264 259 253 248 245 250 257 258 257 257 259 265 272 279 288 297 303 307 310 313 316 318 318 318 321 320 315 313 312 309 309 312 314 315 318 323 327 327 326 327 329 333 338 342 342 343 343 340 334 323 313 308 308 310 312 313
220 220 223 226 224 219 216 214 213 214 218 222 224 228 232 236 243 242 232 227 232 241 243 244 247 251 255 262 264 261 252 245 243 245 251 258 259 259 258 257 260 266 274 282 288 294 300 305 309 312 312 313 313 313 312 309 307 306 306 309 315 320 323 325 327 328 327 327 327 330 335 339 341 343 344 343 341 336 330 322 315 309 307 306 307
226 228 228 228 226 221 214 213 216 219 223 227 231 235 238 238 242 246 242 237 242 250 250 248 252 254 256 262 260 250 243 244 246 249 255 265 267 266 265 262 261 264 270 277 283 287 292 297 302 305 305 307 309 309 307 306 304 305 307 310 315 321 322 324 324 324 325 325 325 330 334 335 338 342 342 340 339 338 335 332 327 321 316 313 311
228 231 230 229 229 226 219 215 220 226 231 235 237 240 243 241 240 244 246 246 252 260 260 258 262 265 265 266 261 253 251 251 251 252 259 272 272 269 270 268 267 268 270 275 280 282 284 289 295 297 299 303 308 307 307 308 310 312 313 313 315 317 317 316 318 320 322 324 324 328 333 333 334 339 340 337 337 337 336 335 332 327 324 321 318
227 230 231 230 230 226 219 218 223 229 233 237 240 241 241 240 240 243 248 251 255 260 264 266 268 267 265 267 264 261 259 257 258 260 267 274 272 269 272 272 272 272 272 274 276 276 278 282 287 292 297 303 307 307 307 309 311 312 313 313 313 316 316 315 315 319 322 321 321 325 330 331 331 335 337 336 338 338 338 338 335 333 331 328 323
229 231 232 230 229 226 221 219 223 229 233 236 238 237 235 236 239 243 249 253 254 256 261 263 262 260 263 266 267 265 263 261 262 263 266 269 270 274 278 279 277 275 274 274 274 274 275 277 283 290 296 300 303 304 303 304 306 308 310 311 312 315 317 316 317 320 322 320 319 323 328 328 328 331 333 334 338 339 339 338 338 339 338 335 331
230 231 231 228 226 225 223 221 222 227 233 236 235 234 234 236 242 246 249 252 252 252 253 252 253 257 259 260 260 262 264 266 266 265 265 268 274 280 285 286 284 280 277 277 276 276 278 280 285 290 293 296 299 300 299 299 302 304 307 309 311 313 314 314 315 319 320 317 317 319 322 322 323 326 329 332 337 338 336 333 333 336 340 341 340
228 229 230 227 224 224 225 226 226 228 233 236 235 234 236 239 245 249 250 249 248 247 246 246 249 253 255 255 258 263 268 271 272 272 273 275 278 282 286 289 288 285 282 281 280 280 281 283 288 290 291 293 295 296 297 299 301 303 305 307 308 308 308 308 311 316 317 314 313 315 317 318 318 321 327 334 338 337 330 323 324 330 337 341 337
227 227 228 227 227 227 228 230 231 232 235 237 238 238 242 246 249 250 249 248 246 244 244 246 250 252 254 256 261 266 270 273 275 277 279 279 279 280 282 284 285 284 283 283 283 284 284 285 288 289 289 291 293 294 295 297 298 300 302 303 304 304 304 306 311 314 312 308 307 309 312 315 315 318 328 336 340 340 326 315 314 323 334 337 330
229 225 225 226 227 229 230 232 234 236 237 239 240 243 247 249 251 252 252 251 249 247 248 250 254 257 258 259 261 265 268 272 275 279 281 281 279 278 278 278 279 281 282 284 285 285 284 285 285 286 287 288 289 290 291 293 294 296 299 301 302 303 305 307 310 308 301 298 299 302 307 312 314 318 327 334 338 335 317 307 310 321 334 336 331
230 226 223 223 224 227 230 232 235 238 238 240 242 244 247 248 249 251 252 253 253 253 253 254 256 259 261 261 262 264 268 271 274 277 281 282 281 279 277 277 278 279 280 281 281 281 281 281 282 283 284 284 286 288 289 292 294 296 298 299 299 300 302 304 304 302 297 295 297 301 307 310 313 317 324 332 336 326 308 307 317 325 332 334 333
224 224 223 222 222 224 227 230 233 236 239 241 243 244 246 249 251 252 253 255 256 256 256 256 257 258 259 260 261 263 266 269 271 276 279 281 280 278 277 277 277 277 277 277 277 279 280 280 281 282 282 282 285 287 289 292 295 297 298 298 296 298 301 302 303 307 304 298 300 307 313 315 316 318 322 330 335 325 318 325 329 329 331 333 335
226 222 217 218 221 223 227 229 232 235 239 242 245 247 249 251 254 256 257 256 256 257 258 257 255 255 256 257 258 259 261 264 269 274 277 276 276 275 274 275 275 275 274 272 273 276 278 278 279 279 280 282 284 286 289 293 297 299 300 301 301 303 305 306 307 310 304 297 300 309 316 317 319 319 320 327 333 331 332 336 333 331 333 336 338
238 230 218 217 224 228 230 233 235 237 241 244 248 251 253 254 255 256 257 257 256 255 254 251 252 254 254 254 254 254 256 261 266 270 271 271 272 273 273 272 271 271 270 268 269 272 274 274 275 275 278 280 281 284 288 292 295 297 299 303 307 308 309 308 308 308 303 300 304 312 316 316 319 321 324 329 334 335 338 339 336 334 338 340 339